Flag for Faroe Islands Weather past 2 weeks in Klaksvík, Faroe Islands, Faroe Islands

Now
54 °F

Sunny.


Feels Like: 52 °F
Forecast: 52 / 56 °F
Wind: 8 mph from Southeast

Location: Thorshavn

Current Time: Aug 27, 2014 at 12:25:00 PM

Latest Report: Aug 27, 2014 at 11:00 AM


Visibility: 19 mi

Pressure: 30.04 "Hg

Humidity: 90%

Dew point: 51 °F

Location of KlaksvíkLocation

Historic Weather in Klaksvík — Graph

°F

Klaksvík temperature yesterday

Maximum temperature yesterday: 56 °F (at 4:00 PM)
Minimum temperature yesterday: 48 °F (at 6:00 AM)
Average temperature yesterday: 51 °F

Past Weeks' High & Low Weather Summary

 TemperatureHumidityPressure
High61 °F (Aug 12, 5:00 PM)97% (Aug 15, 8:00 AM)30.05 "Hg (Aug 15, 8:00 AM)
Low45 °F (Aug 23, 4:00 AM)56% (Aug 23, 5:00 PM)29.23 "Hg (Aug 16, 5:00 PM)
Average51 °F80%29.83 "Hg
* Reported Aug 12 11:00 AM — Aug 27 11:00 AM, Klaksvík, Weather by CustomWeather, © 2014

Note: Actual official high and low records may vary slightly from our data, if they occured in-between our weather recording intervals... More about our weather records

Advertising

Klaksvík weather history for previous 24 hours

 ConditionsComfort  
Time TempWeatherWind HumidityBarometerVisibility
11:00 AM
Aug 27
54 °FSunny.8 mph90%30.04 "Hg19 mi
10:00 AM54 °FPassing clouds.6 mph91%30.04 "Hg19 mi
9:00 AM53 °FSunny.3 mph81%30.04 "Hg25 mi
8:00 AM53 °FSunny.1 mph79%30.04 "Hg31 mi
7:00 AM46 °FClear.2 mph90%30.04 "Hg31 mi
6:00 AM47 °FClear.1 mph95%30.04 "Hg31 mi
5:00 AM49 °FClear.6 mph90%30.05 "Hg31 mi
4:00 AM47 °FClear.3 mph92%30.05 "Hg31 mi
3:00 AM47 °FClear.1 mph91%30.05 "Hg31 mi
2:00 AM49 °FClear.6 mph88%30.05 "Hg31 mi
1:00 AM49 °FClear.7 mph90%30.04 "Hg31 mi
12:00 AM49 °FPassing clouds.1 mph92%30.05 "Hg28 mi
11:00 PM
Aug 26
51 °FClear.7 mph89%30.04 "Hg31 mi
10:00 PM51 °FPassing clouds.3 mph88%30.05 "Hg31 mi
9:00 PM51 °FPassing clouds.6 mph88%30.04 "Hg31 mi
8:00 PM53 °FPassing clouds.10 mph86%30.03 "Hg28 mi
7:00 PM54 °FScattered clouds.12 mph83%30.02 "Hg25 mi
6:00 PM55 °FPartly sunny.8 mph76%30.02 "Hg25 mi
5:00 PM55 °FPassing clouds.10 mph74%30.02 "Hg28 mi
4:00 PM56 °FSunny.8 mph70%30.02 "Hg22 mi
2:00 PM55 °FPassing clouds.12 mph72%30.02 "Hg25 mi
1:00 PM55 °FPassing clouds.13 mph71%30.01 "Hg22 mi
Weather by CustomWeather, © 2014

See weather overviewHow to use our weather pages